TimeCDT,TemperatureF,Dew PointF,Humidity,Sea Level PressureIn,VisibilityMPH,Wind Direction,Wind SpeedMPH,Gust SpeedMPH,PrecipitationIn,Events,Conditions,WindDirDegrees,DateUTC
12:53 AM,42.1,28.0,58,30.16,10.0,SW,9.2,-,N/A,,Clear,220,2012-10-08 05:53:00
1:53 AM,39.9,28.0,63,30.17,10.0,SSW,9.2,-,N/A,,Clear,210,2012-10-08 06:53:00
2:53 AM,39.9,28.0,63,30.16,10.0,SSW,6.9,-,N/A,,Clear,210,2012-10-08 07:53:00
3:53 AM,37.9,28.9,70,30.14,10.0,SSW,6.9,-,N/A,,Clear,210,2012-10-08 08:53:00
4:53 AM,37.9,28.9,70,30.14,10.0,SSW,6.9,-,N/A,,Clear,210,2012-10-08 09:53:00
5:53 AM,37.0,28.9,73,30.15,10.0,SSW,8.1,-,N/A,,Clear,210,2012-10-08 10:53:00
6:53 AM,37.0,28.9,73,30.15,-9999.0,SSW,6.9,-,N/A,,Clear,210,2012-10-08 11:53:00
7:53 AM,37.0,28.9,73,30.14,-9999.0,SSW,6.9,-,N/A,,Clear,200,2012-10-08 12:53:00
8:53 AM,42.1,30.9,65,30.15,-9999.0,SSW,8.1,-,N/A,,Clear,200,2012-10-08 13:53:00
9:53 AM,46.9,30.9,54,30.15,-9999.0,SW,11.5,-,N/A,,Clear,220,2012-10-08 14:53:00
10:53 AM,52.0,32.0,47,30.13,10.0,SW,17.3,21.9,N/A,,Clear,220,2012-10-08 15:53:00
11:53 AM,55.9,32.0,40,30.12,10.0,SW,17.3,24.2,N/A,,Clear,220,2012-10-08 16:53:00
12:53 PM,57.9,32.0,37,30.10,10.0,SSW,16.1,23.0,N/A,,Clear,200,2012-10-08 17:53:00
1:53 PM,61.0,33.1,35,30.07,10.0,SSW,17.3,25.3,N/A,,Clear,200,2012-10-08 18:53:00
2:53 PM,61.0,34.0,36,30.03,10.0,SSW,16.1,23.0,N/A,,Clear,200,2012-10-08 19:53:00
3:53 PM,60.1,34.0,38,30.01,10.0,South,16.1,23.0,N/A,,Clear,180,2012-10-08 20:53:00
4:53 PM,60.1,34.0,38,30.00,10.0,South,15.0,25.3,N/A,,Clear,190,2012-10-08 21:53:00
5:53 PM,59.0,34.0,39,29.99,10.0,SSW,15.0,23.0,N/A,,Clear,200,2012-10-08 22:53:00
6:53 PM,55.9,34.0,44,29.99,10.0,South,10.4,-,N/A,,Clear,190,2012-10-08 23:53:00
7:53 PM,54.0,35.1,49,30.00,10.0,South,6.9,-,N/A,,Clear,180,2012-10-09 00:53:00
8:53 PM,53.1,36.0,52,30.00,10.0,South,11.5,18.4,N/A,,Clear,190,2012-10-09 01:53:00
9:53 PM,52.0,36.0,54,30.01,10.0,South,12.7,20.7,N/A,,Clear,190,2012-10-09 02:53:00
10:53 PM,51.1,36.0,56,30.00,10.0,South,12.7,20.7,N/A,,Clear,190,2012-10-09 03:53:00
11:53 PM,51.1,37.0,59,29.99,10.0,SSW,13.8,21.9,N/A,,Clear,210,2012-10-09 04:53:00